This demonstration page uses our WeatherBlox Daily Observations layout. Learn more.

Left ArrowRight Arrow

Hourly Observations for August 26, 2022

Temp ( °F °C ) Dew Point ( °F °C ) Humidity (%) Winds ( mph kmh ) Pressure ( in mb ) Visibility ( mi km ) Precip ( " mm )
12:52 am 00:52 Clear 72 22.2 65 18.3 79 79 SSE 3 6 30.04 1017 10 16 0.00 0.00
1:52 am 01:52 Clear 70 21.1 65 18.3 84 84 SSE 7 11 30.04 1017 10 16 0.00 0.00
2:52 am 02:52 Clear 70 21.1 64 17.8 81 81 SSE 3 6 30.04 1017 10 16 0.00 0.00
3:52 am 03:52 Clear 70 21.1 64 17.8 81 81 Calm 30.02 1017 10 16 0.00 0.00
4:52 am 04:52 Clear 69 20.6 64 17.8 84 84 Calm 30.03 1017 10 16 0.00 0.00
5:52 am 05:52 Clear 66 18.9 64 17.8 93 93 Calm 30.02 1017 10 16 0.00 0.00
6:52 am 06:52 Sunny 67 19.4 64 17.8 90 90 Calm 30.03 1017 10 16 0.00 0.00
7:52 am 07:52 Sunny 71 21.7 66 18.9 84 84 Calm 30.04 1017 8 13 0.00 0.00
8:52 am 08:52 Sunny 78 25.6 65 18.3 64 64 NW 3 6 30.05 1018 10 16 0.00 0.00
9:52 am 09:52 Sunny 82 27.8 66 18.9 58 58 NNW 3 6 30.05 1018 10 16 0.00 0.00
10:52 am 10:52 Sunny 86 30 68 20 55 55 WNW 5 7 30.05 1018 10 16 0.00 0.00
11:52 am 11:52 Sunny 86 30 67 19.4 53 53 VRB 6 9 30.05 1018 10 16 0.00 0.00
12:52 pm 12:52 Sunny 89 31.7 66 18.9 47 47 W 5 7 30.04 1017 10 16 0.00 0.00
1:52 pm 13:52 Mostly Cloudy 87 30.6 64 17.8 46 46 Calm 30.03 1017 10 16 0.00 0.00
2:52 pm 14:52 Partly Cloudy 90 32.2 67 19.4 47 47 VRB 5 7 30.01 1016 10 16 0.00 0.00
3:03 pm 15:03 Partly Cloudy with Nearby Thunderstorms 91 32.8 67 19.4 45 45 VRB 3 6 29.95 1014 10 16 0.00 0.00
3:18 pm 15:18 Mostly Cloudy 89 31.7 66 18.9 47 47 VRB 6 9 29.95 1014 10 16 0.00 0.00
3:35 pm 15:35 Cloudy with Heavy Rain 78 25.6 67 19.4 69 69 NE 9 15 29.98 1015 2 2 0.01 0.13
3:43 pm 15:43 Cloudy with Rain 79 26.1 67 19.4 67 67 SSE 10 17 29.98 1015 1 1 0.24 6.10
3:47 pm 15:47 Cloudy with Rain 77 25 66 19 69 69 SSE 12 19 29.98 1015 2 3 0.25 6.35
3:52 pm 15:52 Mostly Cloudy with Light Rain 77 25 67 19.4 71 71 S 10 17 30.00 1016 8 13 0.25 6.35
4:11 pm 16:11 Partly Cloudy with Nearby Thunderstorms 79 26.1 70 21.1 74 74 S 6 9 29.96 1014 10 16 0.01 0.13
4:42 pm 16:42 Sunny 80 26.7 72 22.2 76 76 SSE 3 6 29.94 1014 10 16 0.01 0.13
4:52 pm 16:52 Sunny 80 26.7 71 21.7 74 74 SE 12 19 29.98 1015 10 16 0.01 0.13
5:52 pm 17:52 Sunny 78 25.6 69 20.6 74 74 SSE 7 11 29.99 1016 10 16 0.00 0.00
6:52 pm 18:52 Sunny 79 26.1 67 19.4 67 67 SSE 6 9 29.98 1015 10 16 0.00 0.00
7:52 pm 19:52 Clear 76 24.4 67 19.4 74 74 SSE 3 6 29.98 1015 10 16 0.00 0.00
8:52 pm 20:52 Clear 74 23.3 67 19.4 79 79 SSE 5 7 29.98 1015 10 16 0.00 0.00
9:52 pm 21:52 Clear 73 22.8 68 20 84 84 SSE 5 7 29.99 1016 10 16 0.00 0.00
10:52 pm 22:52 Clear 73 22.8 68 20 84 84 Calm 29.99 1016 10 16 0.00 0.00
11:52 pm 23:52 Clear 72 22.2 68 20 87 87 S 3 6 29.99 1016 10 16 0.00 0.00

Powered by AerisWeather